TimeCST,TemperatureF,Dew PointF,Humidity,Sea Level PressureIn,VisibilityMPH,Wind Direction,Wind SpeedMPH,Gust SpeedMPH,PrecipitationIn,Events,Conditions,WindDirDegrees,DateUTC
12:21 AM,54.0,54.0,100,30.16,2.0,SSW,4.6,-,N/A,,Clear,210,2012-01-01 06:21:00
12:24 AM,54.0,54.0,100,30.16,1.8,SSW,3.5,-,N/A,,Partly Cloudy,200,2012-01-01 06:24:00
12:30 AM,54.0,54.0,100,30.16,0.8,SSW,3.5,-,N/A,,Mist,210,2012-01-01 06:30:00
12:56 AM,54.0,54.0,100,30.14,0.2,South,5.8,-,N/A,Fog,Fog,190,2012-01-01 06:56:00
1:56 AM,55.0,54.0,96,30.15,0.8,SSW,4.6,-,N/A,,Overcast,200,2012-01-01 07:56:00
2:56 AM,54.0,54.0,100,30.15,0.5,Calm,Calm,-,N/A,Fog,Fog,0,2012-01-01 08:56:00
3:56 AM,55.9,55.9,100,30.14,0.5,SSW,5.8,-,N/A,Fog,Fog,200,2012-01-01 09:56:00
4:56 AM,57.0,57.0,100,30.16,0.8,SW,8.1,-,N/A,,Overcast,220,2012-01-01 10:56:00
5:38 AM,57.9,57.9,100,30.16,1.0,SSW,6.9,-,N/A,,Overcast,210,2012-01-01 11:38:00
5:52 AM,57.9,57.9,100,30.17,0.8,SW,6.9,-,N/A,,Overcast,220,2012-01-01 11:52:00
5:56 AM,57.9,57.9,100,30.17,0.8,SW,6.9,-,N/A,,Overcast,220,2012-01-01 11:56:00
6:04 AM,57.9,57.9,100,30.17,1.0,SSW,6.9,-,N/A,,Overcast,200,2012-01-01 12:04:00
6:44 AM,59.0,59.0,100,30.18,2.5,SSW,5.8,-,N/A,,Overcast,210,2012-01-01 12:44:00
6:51 AM,59.0,59.0,100,30.18,4.0,SW,8.1,-,N/A,,Overcast,220,2012-01-01 12:51:00
6:56 AM,59.0,59.0,100,30.18,5.0,South,9.2,-,N/A,,Overcast,190,2012-01-01 12:56:00
7:56 AM,60.1,59.0,96,30.18,9.0,SSW,10.4,17.3,N/A,,Overcast,200,2012-01-01 13:56:00
8:21 AM,60.1,59.0,96,30.19,10.0,SSW,8.1,17.3,N/A,,Overcast,210,2012-01-01 14:21:00
8:56 AM,63.0,60.1,90,30.20,10.0,SW,11.5,17.3,N/A,,Overcast,220,2012-01-01 14:56:00
9:23 AM,64.9,60.1,84,30.20,10.0,SW,13.8,18.4,N/A,,Scattered Clouds,230,2012-01-01 15:23:00
9:56 AM,68.0,60.1,76,30.19,10.0,SW,8.1,23.0,N/A,,Partly Cloudy,230,2012-01-01 15:56:00
10:56 AM,70.0,59.0,68,30.14,10.0,SW,13.8,21.9,N/A,,Partly Cloudy,220,2012-01-01 16:56:00
11:56 AM,73.9,59.0,59,30.13,10.0,WSW,16.1,23.0,N/A,,Mostly Cloudy,250,2012-01-01 17:56:00
12:04 PM,73.0,59.0,61,30.13,10.0,WSW,13.8,21.9,N/A,,Mostly Cloudy,250,2012-01-01 18:04:00
12:11 PM,72.0,59.0,64,30.13,10.0,West,11.5,-,N/A,,Mostly Cloudy,260,2012-01-01 18:11:00
12:56 PM,71.1,59.0,66,30.12,10.0,West,11.5,19.6,N/A,,Partly Cloudy,280,2012-01-01 18:56:00
1:56 PM,71.1,57.0,61,30.11,10.0,WNW,11.5,-,N/A,,Partly Cloudy,300,2012-01-01 19:56:00
2:56 PM,70.0,53.1,55,30.12,10.0,West,8.1,-,N/A,,Scattered Clouds,270,2012-01-01 20:56:00
3:56 PM,68.0,46.9,47,30.14,10.0,NW,11.5,-,N/A,,Partly Cloudy,310,2012-01-01 21:56:00
4:56 PM,63.0,39.9,43,30.17,10.0,NW,12.7,17.3,N/A,,Clear,320,2012-01-01 22:56:00
5:56 PM,60.1,37.0,42,30.21,10.0,NW,8.1,-,N/A,,Clear,310,2012-01-01 23:56:00
6:56 PM,57.9,37.0,46,30.23,10.0,NW,10.4,-,N/A,,Clear,310,2012-01-02 00:56:00
7:56 PM,55.9,34.0,44,30.26,10.0,NW,11.5,18.4,N/A,,Clear,320,2012-01-02 01:56:00
8:56 PM,54.0,33.1,45,30.27,10.0,NW,9.2,-,N/A,,Clear,320,2012-01-02 02:56:00
9:56 PM,52.0,32.0,47,30.28,10.0,NNW,10.4,18.4,N/A,,Clear,330,2012-01-02 03:56:00
10:56 PM,50.0,32.0,50,30.28,10.0,NW,10.4,18.4,N/A,,Clear,320,2012-01-02 04:56:00
11:56 PM,48.9,30.9,50,30.28,10.0,NNW,13.8,24.2,N/A,,Clear,330,2012-01-02 05:56:00